<?xml version="1.0" encoding="UTF-8" standalone="no" ?>
<gpx xmlns="http://www.topografix.com/GPX/1/1" xmlns:xsi="http://www.w3.org/2001/XMLSchema-instance" xsi:schemaLocation="http://www.topografix.com/GPX/1/1 http://www.topografix.com/GPX/1/1/gpx.xsd" version="1.1" creator="VisuGPX - https://www.visugpx.com">
  <metadata>
    <name>13-Plateau du Grand Arbois</name>
    <desc><![CDATA[Reconnaissance faite par Jean Michezl Belloni
Sortie RSD du 10 juin 2012]]></desc>
  </metadata>
  <trk>
    <name><![CDATA[13_Plateau_Grand_Arbois]]></name>
    <trkseg>
      <trkpt lat="43.48785" lon="5.25903">
        <ele>203.7</ele>
        <time>2012-05-21T12:09:34Z</time>
      </trkpt>
      <trkpt lat="43.48764" lon="5.26034">
        <ele>205.6</ele>
        <time>2012-05-21T12:09:34Z</time>
      </trkpt>
      <trkpt lat="43.48788" lon="5.2625">
        <ele>207.5</ele>
        <time>2012-05-21T12:09:34Z</time>
      </trkpt>
      <trkpt lat="43.48741" lon="5.26621">
        <ele>200.4</ele>
        <time>2012-05-21T12:09:34Z</time>
      </trkpt>
      <trkpt lat="43.48754" lon="5.26698">
        <ele>200.1</ele>
        <time>2012-05-21T12:09:34Z</time>
      </trkpt>
      <trkpt lat="43.48788" lon="5.26749">
        <ele>200</ele>
        <time>2012-05-21T12:09:34Z</time>
      </trkpt>
      <trkpt lat="43.48872" lon="5.2674">
        <ele>197.9</ele>
        <time>2012-05-21T12:09:34Z</time>
      </trkpt>
      <trkpt lat="43.48913" lon="5.26763">
        <ele>199.6</ele>
        <time>2012-05-21T12:09:34Z</time>
      </trkpt>
      <trkpt lat="43.49017" lon="5.26736">
        <ele>202.9</ele>
        <time>2012-05-21T12:09:34Z</time>
      </trkpt>
      <trkpt lat="43.49118" lon="5.26731">
        <ele>203.6</ele>
        <time>2012-05-21T12:09:34Z</time>
      </trkpt>
      <trkpt lat="43.49195" lon="5.26689">
        <ele>202.1</ele>
        <time>2012-05-21T12:09:34Z</time>
      </trkpt>
      <trkpt lat="43.49303" lon="5.26662">
        <ele>207.3</ele>
        <time>2012-05-21T12:09:34Z</time>
      </trkpt>
      <trkpt lat="43.49459" lon="5.26632">
        <ele>201.5</ele>
        <time>2012-05-21T12:09:34Z</time>
      </trkpt>
      <trkpt lat="43.49482" lon="5.26664">
        <ele>203</ele>
        <time>2012-05-21T12:09:34Z</time>
      </trkpt>
      <trkpt lat="43.49526" lon="5.26671">
        <ele>201.6</ele>
        <time>2012-05-21T12:09:34Z</time>
      </trkpt>
      <trkpt lat="43.49513" lon="5.26718">
        <ele>203.6</ele>
        <time>2012-05-21T12:09:34Z</time>
      </trkpt>
      <trkpt lat="43.49521" lon="5.2674">
        <ele>204.3</ele>
        <time>2012-05-21T12:09:34Z</time>
      </trkpt>
      <trkpt lat="43.49595" lon="5.26747">
        <ele>198</ele>
        <time>2012-05-21T12:09:34Z</time>
      </trkpt>
      <trkpt lat="43.49631" lon="5.26749">
        <ele>196.1</ele>
        <time>2012-05-21T12:09:34Z</time>
      </trkpt>
      <trkpt lat="43.49761" lon="5.267">
        <ele>203.5</ele>
        <time>2012-05-21T12:09:34Z</time>
      </trkpt>
      <trkpt lat="43.49791" lon="5.26702">
        <ele>205.9</ele>
        <time>2012-05-21T12:09:34Z</time>
      </trkpt>
      <trkpt lat="43.4991" lon="5.2677">
        <ele>206.9</ele>
        <time>2012-05-21T12:09:34Z</time>
      </trkpt>
      <trkpt lat="43.49939" lon="5.26833">
        <ele>210.2</ele>
        <time>2012-05-21T12:09:34Z</time>
      </trkpt>
      <trkpt lat="43.50052" lon="5.26916">
        <ele>202.8</ele>
        <time>2012-05-21T12:09:34Z</time>
      </trkpt>
      <trkpt lat="43.50072" lon="5.27008">
        <ele>205.7</ele>
        <time>2012-05-21T12:09:34Z</time>
      </trkpt>
      <trkpt lat="43.50063" lon="5.27029">
        <ele>206.4</ele>
        <time>2012-05-21T12:09:34Z</time>
      </trkpt>
      <trkpt lat="43.5001" lon="5.27042">
        <ele>215.7</ele>
        <time>2012-05-21T12:09:34Z</time>
      </trkpt>
      <trkpt lat="43.50091" lon="5.27386">
        <ele>210.4</ele>
        <time>2012-05-21T12:09:34Z</time>
      </trkpt>
      <trkpt lat="43.50116" lon="5.27458">
        <ele>205.1</ele>
        <time>2012-05-21T12:09:34Z</time>
      </trkpt>
      <trkpt lat="43.50116" lon="5.27458">
        <ele>205.1</ele>
        <time>2012-05-21T12:09:34Z</time>
      </trkpt>
      <trkpt lat="43.50137" lon="5.27483">
        <ele>204.1</ele>
        <time>2012-05-21T12:09:34Z</time>
      </trkpt>
      <trkpt lat="43.5016" lon="5.2749">
        <ele>203</ele>
        <time>2012-05-21T12:09:34Z</time>
      </trkpt>
      <trkpt lat="43.50196" lon="5.27535">
        <ele>207.6</ele>
        <time>2012-05-21T12:09:34Z</time>
      </trkpt>
      <trkpt lat="43.50227" lon="5.2753">
        <ele>206.1</ele>
        <time>2012-05-21T12:09:34Z</time>
      </trkpt>
      <trkpt lat="43.50214" lon="5.27557">
        <ele>211.6</ele>
        <time>2012-05-21T12:09:34Z</time>
      </trkpt>
      <trkpt lat="43.50223" lon="5.27679">
        <ele>231.1</ele>
        <time>2012-05-21T12:09:34Z</time>
      </trkpt>
      <trkpt lat="43.50267" lon="5.27724">
        <ele>223.2</ele>
        <time>2012-05-21T12:09:34Z</time>
      </trkpt>
      <trkpt lat="43.50272" lon="5.27751">
        <ele>223.7</ele>
        <time>2012-05-21T12:09:34Z</time>
      </trkpt>
      <trkpt lat="43.50271" lon="5.27798">
        <ele>227.7</ele>
        <time>2012-05-21T12:09:34Z</time>
      </trkpt>
      <trkpt lat="43.50326" lon="5.27861">
        <ele>218.5</ele>
        <time>2012-05-21T12:09:34Z</time>
      </trkpt>
      <trkpt lat="43.50352" lon="5.27949">
        <ele>217.5</ele>
        <time>2012-05-21T12:09:34Z</time>
      </trkpt>
      <trkpt lat="43.50364" lon="5.27989">
        <ele>216.9</ele>
        <time>2012-05-21T12:09:34Z</time>
      </trkpt>
      <trkpt lat="43.504" lon="5.27989">
        <ele>211.3</ele>
        <time>2012-05-21T12:09:34Z</time>
      </trkpt>
      <trkpt lat="43.50463" lon="5.2801">
        <ele>207.3</ele>
        <time>2012-05-21T12:09:34Z</time>
      </trkpt>
      <trkpt lat="43.50496" lon="5.28039">
        <ele>208.5</ele>
        <time>2012-05-21T12:09:34Z</time>
      </trkpt>
      <trkpt lat="43.50535" lon="5.28057">
        <ele>207.6</ele>
        <time>2012-05-21T12:09:34Z</time>
      </trkpt>
      <trkpt lat="43.50568" lon="5.28091">
        <ele>209.5</ele>
        <time>2012-05-21T12:09:34Z</time>
      </trkpt>
      <trkpt lat="43.50653" lon="5.28102">
        <ele>208.1</ele>
        <time>2012-05-21T12:09:34Z</time>
      </trkpt>
      <trkpt lat="43.50702" lon="5.28093">
        <ele>210.8</ele>
        <time>2012-05-21T12:09:34Z</time>
      </trkpt>
      <trkpt lat="43.50741" lon="5.28055">
        <ele>212.1</ele>
        <time>2012-05-21T12:09:34Z</time>
      </trkpt>
      <trkpt lat="43.50767" lon="5.28109">
        <ele>214</ele>
        <time>2012-05-21T12:09:34Z</time>
      </trkpt>
      <trkpt lat="43.50798" lon="5.28093">
        <ele>214.9</ele>
        <time>2012-05-21T12:09:34Z</time>
      </trkpt>
      <trkpt lat="43.50829" lon="5.28151">
        <ele>214.6</ele>
        <time>2012-05-21T12:09:34Z</time>
      </trkpt>
      <trkpt lat="43.50935" lon="5.28257">
        <ele>205.3</ele>
        <time>2012-05-21T12:09:34Z</time>
      </trkpt>
      <trkpt lat="43.50966" lon="5.28289">
        <ele>198.6</ele>
        <time>2012-05-21T12:09:34Z</time>
      </trkpt>
      <trkpt lat="43.51052" lon="5.28311">
        <ele>187.5</ele>
        <time>2012-05-21T12:09:34Z</time>
      </trkpt>
      <trkpt lat="43.51082" lon="5.28325">
        <ele>186.5</ele>
        <time>2012-05-21T12:09:34Z</time>
      </trkpt>
      <trkpt lat="43.51162" lon="5.28343">
        <ele>179.8</ele>
        <time>2012-05-21T12:09:34Z</time>
      </trkpt>
      <trkpt lat="43.51242" lon="5.28372">
        <ele>175.1</ele>
        <time>2012-05-21T12:09:34Z</time>
      </trkpt>
      <trkpt lat="43.51341" lon="5.28394">
        <ele>169.4</ele>
        <time>2012-05-21T12:09:34Z</time>
      </trkpt>
      <trkpt lat="43.51503" lon="5.28421">
        <ele>164.3</ele>
        <time>2012-05-21T12:09:34Z</time>
      </trkpt>
      <trkpt lat="43.51539" lon="5.28464">
        <ele>170.2</ele>
        <time>2012-05-21T12:09:34Z</time>
      </trkpt>
      <trkpt lat="43.51589" lon="5.28529">
        <ele>171.1</ele>
        <time>2012-05-21T12:09:34Z</time>
      </trkpt>
      <trkpt lat="43.51604" lon="5.28617">
        <ele>178.1</ele>
        <time>2012-05-21T12:09:34Z</time>
      </trkpt>
      <trkpt lat="43.51594" lon="5.28687">
        <ele>179.4</ele>
        <time>2012-05-21T12:09:34Z</time>
      </trkpt>
      <trkpt lat="43.51593" lon="5.2873">
        <ele>175</ele>
        <time>2012-05-21T12:09:34Z</time>
      </trkpt>
      <trkpt lat="43.51565" lon="5.2875">
        <ele>177.9</ele>
        <time>2012-05-21T12:09:34Z</time>
      </trkpt>
      <trkpt lat="43.51518" lon="5.28745">
        <ele>188.8</ele>
        <time>2012-05-21T12:09:34Z</time>
      </trkpt>
      <trkpt lat="43.515" lon="5.28739">
        <ele>193.5</ele>
        <time>2012-05-21T12:09:34Z</time>
      </trkpt>
      <trkpt lat="43.51503" lon="5.28775">
        <ele>186</ele>
        <time>2012-05-21T12:09:34Z</time>
      </trkpt>
      <trkpt lat="43.5155" lon="5.28842">
        <ele>174.4</ele>
        <time>2012-05-21T12:09:34Z</time>
      </trkpt>
      <trkpt lat="43.51562" lon="5.28876">
        <ele>172.4</ele>
        <time>2012-05-21T12:09:34Z</time>
      </trkpt>
      <trkpt lat="43.51571" lon="5.28943">
        <ele>175.3</ele>
        <time>2012-05-21T12:09:34Z</time>
      </trkpt>
      <trkpt lat="43.51552" lon="5.29015">
        <ele>181</ele>
        <time>2012-05-21T12:09:34Z</time>
      </trkpt>
      <trkpt lat="43.51537" lon="5.29105">
        <ele>180.1</ele>
        <time>2012-05-21T12:09:34Z</time>
      </trkpt>
      <trkpt lat="43.51552" lon="5.29139">
        <ele>175.1</ele>
        <time>2012-05-21T12:09:34Z</time>
      </trkpt>
      <trkpt lat="43.51607" lon="5.2918">
        <ele>163.7</ele>
        <time>2012-05-21T12:09:34Z</time>
      </trkpt>
      <trkpt lat="43.51635" lon="5.2929">
        <ele>172.9</ele>
        <time>2012-05-21T12:09:34Z</time>
      </trkpt>
      <trkpt lat="43.51669" lon="5.29303">
        <ele>162.8</ele>
        <time>2012-05-21T12:09:34Z</time>
      </trkpt>
      <trkpt lat="43.51645" lon="5.29353">
        <ele>165.4</ele>
        <time>2012-05-21T12:09:34Z</time>
      </trkpt>
      <trkpt lat="43.51591" lon="5.29369">
        <ele>178.4</ele>
        <time>2012-05-21T12:09:34Z</time>
      </trkpt>
      <trkpt lat="43.51545" lon="5.29418">
        <ele>179</ele>
        <time>2012-05-21T12:09:34Z</time>
      </trkpt>
      <trkpt lat="43.51449" lon="5.29526">
        <ele>177.4</ele>
        <time>2012-05-21T12:09:34Z</time>
      </trkpt>
      <trkpt lat="43.51377" lon="5.29625">
        <ele>181.2</ele>
        <time>2012-05-21T12:09:34Z</time>
      </trkpt>
      <trkpt lat="43.51296" lon="5.29702">
        <ele>180.3</ele>
        <time>2012-05-21T12:09:34Z</time>
      </trkpt>
      <trkpt lat="43.51234" lon="5.29726">
        <ele>185.6</ele>
        <time>2012-05-21T12:09:34Z</time>
      </trkpt>
      <trkpt lat="43.51227" lon="5.2976">
        <ele>185.2</ele>
        <time>2012-05-21T12:09:34Z</time>
      </trkpt>
      <trkpt lat="43.51245" lon="5.2978">
        <ele>178.7</ele>
        <time>2012-05-21T12:09:34Z</time>
      </trkpt>
      <trkpt lat="43.51276" lon="5.29758">
        <ele>172.9</ele>
        <time>2012-05-21T12:09:34Z</time>
      </trkpt>
      <trkpt lat="43.51307" lon="5.2981">
        <ele>160.3</ele>
        <time>2012-05-21T12:09:34Z</time>
      </trkpt>
      <trkpt lat="43.51446" lon="5.29713">
        <ele>146</ele>
        <time>2012-05-21T12:09:34Z</time>
      </trkpt>
      <trkpt lat="43.51532" lon="5.29699">
        <ele>132.2</ele>
        <time>2012-05-21T12:09:34Z</time>
      </trkpt>
      <trkpt lat="43.51573" lon="5.29744">
        <ele>136.5</ele>
        <time>2012-05-21T12:09:34Z</time>
      </trkpt>
      <trkpt lat="43.51601" lon="5.299">
        <ele>163.5</ele>
        <time>2012-05-21T12:09:34Z</time>
      </trkpt>
      <trkpt lat="43.51615" lon="5.30026">
        <ele>162.6</ele>
        <time>2012-05-21T12:09:34Z</time>
      </trkpt>
      <trkpt lat="43.51606" lon="5.30134">
        <ele>152.5</ele>
        <time>2012-05-21T12:09:34Z</time>
      </trkpt>
      <trkpt lat="43.51526" lon="5.3021">
        <ele>152.8</ele>
        <time>2012-05-21T12:09:34Z</time>
      </trkpt>
      <trkpt lat="43.51446" lon="5.30255">
        <ele>161.5</ele>
        <time>2012-05-21T12:09:34Z</time>
      </trkpt>
      <trkpt lat="43.51395" lon="5.30343">
        <ele>159.9</ele>
        <time>2012-05-21T12:09:34Z</time>
      </trkpt>
      <trkpt lat="43.51345" lon="5.30449">
        <ele>146</ele>
        <time>2012-05-21T12:09:34Z</time>
      </trkpt>
      <trkpt lat="43.51271" lon="5.30501">
        <ele>142.4</ele>
        <time>2012-05-21T12:09:34Z</time>
      </trkpt>
      <trkpt lat="43.51175" lon="5.30525">
        <ele>141</ele>
        <time>2012-05-21T12:09:34Z</time>
      </trkpt>
      <trkpt lat="43.51061" lon="5.30537">
        <ele>149.3</ele>
        <time>2012-05-21T12:09:34Z</time>
      </trkpt>
      <trkpt lat="43.50989" lon="5.30568">
        <ele>152.8</ele>
        <time>2012-05-21T12:09:34Z</time>
      </trkpt>
      <trkpt lat="43.50968" lon="5.30602">
        <ele>150.4</ele>
        <time>2012-05-21T12:09:34Z</time>
      </trkpt>
      <trkpt lat="43.50915" lon="5.30629">
        <ele>152.8</ele>
        <time>2012-05-21T12:09:34Z</time>
      </trkpt>
      <trkpt lat="43.5087" lon="5.30717">
        <ele>158.2</ele>
        <time>2012-05-21T12:09:34Z</time>
      </trkpt>
      <trkpt lat="43.50853" lon="5.30703">
        <ele>162.5</ele>
        <time>2012-05-21T12:09:34Z</time>
      </trkpt>
      <trkpt lat="43.5086" lon="5.30651">
        <ele>161.1</ele>
        <time>2012-05-21T12:09:34Z</time>
      </trkpt>
      <trkpt lat="43.50832" lon="5.30532">
        <ele>174.7</ele>
        <time>2012-05-21T12:09:34Z</time>
      </trkpt>
      <trkpt lat="43.50847" lon="5.30456">
        <ele>178</ele>
        <time>2012-05-21T12:09:34Z</time>
      </trkpt>
      <trkpt lat="43.50857" lon="5.30393">
        <ele>181</ele>
        <time>2012-05-21T12:09:34Z</time>
      </trkpt>
      <trkpt lat="43.50857" lon="5.30318">
        <ele>188.8</ele>
        <time>2012-05-21T12:09:34Z</time>
      </trkpt>
      <trkpt lat="43.50943" lon="5.30114">
        <ele>201.7</ele>
        <time>2012-05-21T12:09:34Z</time>
      </trkpt>
      <trkpt lat="43.50902" lon="5.3008">
        <ele>212.5</ele>
        <time>2012-05-21T12:09:34Z</time>
      </trkpt>
      <trkpt lat="43.5094" lon="5.29979">
        <ele>213.4</ele>
        <time>2012-05-21T12:09:34Z</time>
      </trkpt>
      <trkpt lat="43.50941" lon="5.29893">
        <ele>220.5</ele>
        <time>2012-05-21T12:09:34Z</time>
      </trkpt>
      <trkpt lat="43.50915" lon="5.29841">
        <ele>227</ele>
        <time>2012-05-21T12:09:34Z</time>
      </trkpt>
      <trkpt lat="43.50912" lon="5.29749">
        <ele>229.9</ele>
        <time>2012-05-21T12:09:34Z</time>
      </trkpt>
      <trkpt lat="43.50881" lon="5.29641">
        <ele>230.7</ele>
        <time>2012-05-21T12:09:34Z</time>
      </trkpt>
      <trkpt lat="43.50847" lon="5.2956">
        <ele>234.4</ele>
        <time>2012-05-21T12:09:34Z</time>
      </trkpt>
      <trkpt lat="43.5078" lon="5.2947">
        <ele>235.9</ele>
        <time>2012-05-21T12:09:34Z</time>
      </trkpt>
      <trkpt lat="43.50768" lon="5.29387">
        <ele>234</ele>
        <time>2012-05-21T12:09:34Z</time>
      </trkpt>
      <trkpt lat="43.50788" lon="5.29297">
        <ele>236.6</ele>
        <time>2012-05-21T12:09:34Z</time>
      </trkpt>
      <trkpt lat="43.50785" lon="5.29159">
        <ele>239.1</ele>
        <time>2012-05-21T12:09:34Z</time>
      </trkpt>
      <trkpt lat="43.50801" lon="5.29045">
        <ele>240.9</ele>
        <time>2012-05-21T12:09:34Z</time>
      </trkpt>
      <trkpt lat="43.50863" lon="5.2891">
        <ele>244.8</ele>
        <time>2012-05-21T12:09:34Z</time>
      </trkpt>
      <trkpt lat="43.50866" lon="5.28822">
        <ele>245.1</ele>
        <time>2012-05-21T12:09:34Z</time>
      </trkpt>
      <trkpt lat="43.50814" lon="5.28471">
        <ele>249.1</ele>
        <time>2012-05-21T12:09:34Z</time>
      </trkpt>
      <trkpt lat="43.50749" lon="5.28343">
        <ele>247.2</ele>
        <time>2012-05-21T12:09:34Z</time>
      </trkpt>
      <trkpt lat="43.50613" lon="5.2832">
        <ele>245.6</ele>
        <time>2012-05-21T12:09:34Z</time>
      </trkpt>
      <trkpt lat="43.5053" lon="5.28334">
        <ele>249.7</ele>
        <time>2012-05-21T12:09:34Z</time>
      </trkpt>
      <trkpt lat="43.50468" lon="5.28253">
        <ele>246.2</ele>
        <time>2012-05-21T12:09:34Z</time>
      </trkpt>
      <trkpt lat="43.50378" lon="5.28219">
        <ele>248.2</ele>
        <time>2012-05-21T12:09:34Z</time>
      </trkpt>
      <trkpt lat="43.50295" lon="5.28205">
        <ele>251.7</ele>
        <time>2012-05-21T12:09:34Z</time>
      </trkpt>
      <trkpt lat="43.50238" lon="5.28151">
        <ele>251.5</ele>
        <time>2012-05-21T12:09:34Z</time>
      </trkpt>
      <trkpt lat="43.50192" lon="5.28061">
        <ele>253.6</ele>
        <time>2012-05-21T12:09:34Z</time>
      </trkpt>
      <trkpt lat="43.50145" lon="5.2789">
        <ele>253.6</ele>
        <time>2012-05-21T12:09:34Z</time>
      </trkpt>
      <trkpt lat="43.50106" lon="5.27796">
        <ele>252.1</ele>
        <time>2012-05-21T12:09:34Z</time>
      </trkpt>
      <trkpt lat="43.50063" lon="5.27773">
        <ele>251.5</ele>
        <time>2012-05-21T12:09:34Z</time>
      </trkpt>
      <trkpt lat="43.49972" lon="5.27771">
        <ele>253.2</ele>
        <time>2012-05-21T12:09:34Z</time>
      </trkpt>
      <trkpt lat="43.49964" lon="5.27647">
        <ele>255.9</ele>
        <time>2012-05-21T12:09:34Z</time>
      </trkpt>
      <trkpt lat="43.49907" lon="5.27483">
        <ele>257.7</ele>
        <time>2012-05-21T12:09:34Z</time>
      </trkpt>
      <trkpt lat="43.49792" lon="5.27251">
        <ele>259</ele>
        <time>2012-05-21T12:09:34Z</time>
      </trkpt>
      <trkpt lat="43.49761" lon="5.27175">
        <ele>261.2</ele>
        <time>2012-05-21T12:09:34Z</time>
      </trkpt>
      <trkpt lat="43.49776" lon="5.27085">
        <ele>262.5</ele>
        <time>2012-05-21T12:09:34Z</time>
      </trkpt>
      <trkpt lat="43.49753" lon="5.27049">
        <ele>263.3</ele>
        <time>2012-05-21T12:09:34Z</time>
      </trkpt>
      <trkpt lat="43.49726" lon="5.27026">
        <ele>261.3</ele>
        <time>2012-05-21T12:09:34Z</time>
      </trkpt>
      <trkpt lat="43.49678" lon="5.27031">
        <ele>263.2</ele>
        <time>2012-05-21T12:09:34Z</time>
      </trkpt>
      <trkpt lat="43.49564" lon="5.27013">
        <ele>260</ele>
        <time>2012-05-21T12:09:34Z</time>
      </trkpt>
      <trkpt lat="43.49544" lon="5.2699">
        <ele>255.7</ele>
        <time>2012-05-21T12:09:34Z</time>
      </trkpt>
      <trkpt lat="43.49397" lon="5.27042">
        <ele>262.4</ele>
        <time>2012-05-21T12:09:34Z</time>
      </trkpt>
      <trkpt lat="43.49177" lon="5.27083">
        <ele>244.9</ele>
        <time>2012-05-21T12:09:34Z</time>
      </trkpt>
      <trkpt lat="43.48994" lon="5.27157">
        <ele>244.3</ele>
        <time>2012-05-21T12:09:34Z</time>
      </trkpt>
      <trkpt lat="43.4889" lon="5.27143">
        <ele>239.8</ele>
        <time>2012-05-21T12:09:34Z</time>
      </trkpt>
      <trkpt lat="43.48743" lon="5.27164">
        <ele>233.7</ele>
        <time>2012-05-21T12:09:34Z</time>
      </trkpt>
      <trkpt lat="43.48637" lon="5.27152">
        <ele>233.3</ele>
        <time>2012-05-21T12:09:34Z</time>
      </trkpt>
      <trkpt lat="43.48545" lon="5.27042">
        <ele>222.7</ele>
        <time>2012-05-21T12:09:34Z</time>
      </trkpt>
      <trkpt lat="43.48509" lon="5.27001">
        <ele>220.7</ele>
        <time>2012-05-21T12:09:34Z</time>
      </trkpt>
      <trkpt lat="43.48508" lon="5.26943">
        <ele>214</ele>
        <time>2012-05-21T12:09:34Z</time>
      </trkpt>
      <trkpt lat="43.48539" lon="5.26878">
        <ele>208.2</ele>
        <time>2012-05-21T12:09:34Z</time>
      </trkpt>
      <trkpt lat="43.48513" lon="5.26866">
        <ele>206.8</ele>
        <time>2012-05-21T12:09:34Z</time>
      </trkpt>
      <trkpt lat="43.48532" lon="5.26821">
        <ele>202.7</ele>
        <time>2012-05-21T12:09:34Z</time>
      </trkpt>
      <trkpt lat="43.48504" lon="5.26745">
        <ele>197.5</ele>
        <time>2012-05-21T12:09:34Z</time>
      </trkpt>
      <trkpt lat="43.48406" lon="5.25939">
        <ele>198.8</ele>
        <time>2012-05-21T12:09:34Z</time>
      </trkpt>
      <trkpt lat="43.48454" lon="5.25903">
        <ele>190.8</ele>
        <time>2012-05-21T12:09:34Z</time>
      </trkpt>
      <trkpt lat="43.48508" lon="5.25856">
        <ele>190.5</ele>
        <time>2012-05-21T12:09:34Z</time>
      </trkpt>
      <trkpt lat="43.48558" lon="5.25739">
        <ele>182.6</ele>
        <time>2012-05-21T12:09:34Z</time>
      </trkpt>
      <trkpt lat="43.48625" lon="5.2566">
        <ele>183.2</ele>
        <time>2012-05-21T12:09:34Z</time>
      </trkpt>
      <trkpt lat="43.48687" lon="5.25642">
        <ele>184.8</ele>
        <time>2012-05-21T12:09:34Z</time>
      </trkpt>
      <trkpt lat="43.48743" lon="5.25669">
        <ele>191.4</ele>
        <time>2012-05-21T12:09:34Z</time>
      </trkpt>
      <trkpt lat="43.48802" lon="5.25665">
        <ele>189</ele>
        <time>2012-05-21T12:09:34Z</time>
      </trkpt>
      <trkpt lat="43.48808" lon="5.25741">
        <ele>198.2</ele>
        <time>2012-05-21T12:09:34Z</time>
      </trkpt>
      <trkpt lat="43.48818" lon="5.25784">
        <ele>198.6</ele>
        <time>2012-05-21T12:09:34Z</time>
      </trkpt>
      <trkpt lat="43.48797" lon="5.25829">
        <ele>201.7</ele>
        <time>2012-05-21T12:09:34Z</time>
      </trkpt>
      <trkpt lat="43.48785" lon="5.25903">
        <ele>203.7</ele>
        <time>2012-05-21T12:09:34Z</time>
      </trkpt>
    </trkseg>
  </trk>
</gpx>